User: anonymous   Login
Location: Columbia
(38.9520°N, 92.3340°W)
Time: 22:57:15
(UTC-06:00)
Language:

Iridium 52 - Orbit

View from above orbital plane
View from above orbital plane
View from above satellite
View from above satellite

Ground track
Ground track

The orbit data is extracted from the following two-line orbital elements,

1 25169U 98010A   16344.50143219  .00000008  00000-0 -40763-5 0  9998
2 25169  86.3981  69.6886 0002188  96.4495 263.6950 14.34219828984597
Epoch (UTC): 09 December 2016 12:02:03
Eccentricity: 0.0002188
inclination: 86.3981°
perigee height: 776 km
apogee height: 779 km
right ascension of ascending node: 69.6886°
argument of perigee: 96.4495°
revolutions per day: 14.34219828
mean anomaly at epoch: 263.6950°
orbit number at epoch: 98459

The dashed part of the orbit path shows where the satellite is in the earth's shadow,  

DLR